星链-5681 (STARLINK-5681 )

导读 | 豆包AI

STARLINK-5681是美国太空探索技术公司(SpaceX)星链项目的低轨通信卫星,于2023年2月2日由猎鹰9号火箭在肯尼迪航天中心发射,属于星链项目第71批组网卫星,纳入第二代星链轨道部署。它运行在近地轨道,服务全球卫星互联网,可提供高速低延迟宽带服务,帮助填补偏远地区网络覆盖空白,支撑星链全球组网的通信基础设施构建。

基本信息
目录编号:
55469
目录名称:
STARLINK-5681
国际标识:
2023-015W
轨道中心:
EARTH
卫星名称:
星链-5681
卫星全名:
星链-5681 (STARLINK-5681 )
卫星状态:
在轨 (已飞行1137 天)
发射日期:
2023-02-02 UTC
国别 :
美国 (US)
星等 :
--
轨道信息
数据来源 国际轨道数据
星历时间: 2026-03-15T14:00:01+0800
8小时前
查看轨道信息
半长轴: 6916.631km
偏心率: 0.0002004
轨道倾角: 43.000°
近地点辐角 265.641°
升交点赤经 295.480°
平近点角 103.857°
近地点: 537.107km
远地点: 539.881km
周期: 95.412分钟
每日圈数: 15.092489
详细信息
固有亮度:
5
最大亮度:
2.5
卫星平台:
Starlink v1.5
覆盖范围:
全球
运营商:
太空探索技术公司
运营商所在国:
美国
制造商(研发单位):
太空探索技术公司
制造商所在国:
美国
使用方式:
暂无
卫星简介
星链(Starlink)计划是由太空探索技术公司(SpaceX)提出的一个巨型低轨卫星互联网星座项目,计划在2019年至2024年间在太空搭建由约1.2万颗卫星组成的“星链”网络,其中1584颗将部署在地球上空550千米处的近地轨道,并从2020年开始工作。该卫星仍在工作。
2D轨道图
3D轨道图
轨道高度分析图
轨道倾角分析图
轨道综合分析图
查看轨道综合分析图